When you browse on this site, cookies collect data to enhance your experience and personalize the content and advertising you see.
Visit our Privacy Policy to learn more. By continuing to use the site, you agree to this use of cookies and data.
  • In Spain
  • List of Countries
  • For 7 days
  • Water Temperature
  • Satellite Maps
  • Weather Map
  • Weather Widgets
  • user-avatar
    Login

    Hourly Weather Innsbruck

    Today, 19 July, Friday

    Time Temperature Precipitation Wind Pressure Humidity
    00:00 +6°C° 0 mm 1 mps 596 mmHg 89%
    01:00 +6°C° 0 mm 1 mps 596 mmHg 90%
    02:00 +6°C° 0 mm 1 mps 596 mmHg 89%
    03:00 +5°C° 0 mm 1 mps 596 mmHg 89%
    04:00 +5°C° 0 mm 1 mps 596 mmHg 88%
    05:00 +6°C° 0 mm 0 mps 597 mmHg 84%
    06:00 +8°C° 0 mm 0 mps 598 mmHg 80%
    07:00 +10°C° 0 mm 0 mps 599 mmHg 76%
    08:00 +12°C° 0 mm 0 mps 600 mmHg 67%
    09:00 +14°C° 0 mm 0 mps 601 mmHg 57%
    10:00 +18°C° 0 mm 1 mps 602 mmHg 48%
    11:00 +19°C° 0 mm 1 mps 602 mmHg 46%
    12:00 +19°C° 0 mm 1 mps 602 mmHg 43%
    13:00 +20°C° 0 mm 1 mps 602 mmHg 41%
    14:00 +20°C° 0.2 mm 1 mps 602 mmHg 45%
    15:00 +19°C° 0.2 mm 1 mps 602 mmHg 48%
    16:00 +17°C° 0.2 mm 2 mps 601 mmHg 51%
    17:00 +16°C° 0.4 mm 1 mps 601 mmHg 61%
    18:00 +15°C° 0.4 mm 1 mps 601 mmHg 72%
    19:00 +13°C° 0.4 mm 1 mps 600 mmHg 82%
    20:00 +12°C° 0.1 mm 1 mps 600 mmHg 85%
    21:00 +10°C° 0.1 mm 1 mps 599 mmHg 89%
    22:00 +7°C° 0.1 mm 0 mps 598 mmHg 93%
    23:00 +8°C° 0 mm 1 mps 598 mmHg 92%

    Tomorrow, 20 July, Saturday

    Time Temperature Precipitation Wind Pressure Humidity
    00:00 +8°C° 0 mm 1 mps 598 mmHg 92%
    01:00 +8°C° 0 mm 1 mps 598 mmHg 91%
    02:00 +8°C° 0 mm 1 mps 598 mmHg 91%
    03:00 +7°C° 0 mm 1 mps 598 mmHg 90%
    04:00 +7°C° 0 mm 1 mps 598 mmHg 90%
    05:00 +9°C° 0 mm 1 mps 599 mmHg 86%
    06:00 +11°C° 0 mm 1 mps 600 mmHg 83%
    07:00 +13°C° 0 mm 1 mps 600 mmHg 79%
    08:00 +15°C° 0 mm 1 mps 601 mmHg 70%
    09:00 +18°C° 0 mm 1 mps 602 mmHg 60%
    10:00 +21°C° 0 mm 1 mps 603 mmHg 51%
    11:00 +21°C° 0.2 mm 1 mps 603 mmHg 50%
    12:00 +21°C° 0.2 mm 1 mps 603 mmHg 49%
    13:00 +21°C° 0.2 mm 1 mps 603 mmHg 48%
    14:00 +20°C° 0.7 mm 1 mps 603 mmHg 54%
    15:00 +19°C° 0.7 mm 1 mps 603 mmHg 60%
    16:00 +18°C° 0.7 mm 1 mps 602 mmHg 66%
    17:00 +16°C° 1.6 mm 1 mps 602 mmHg 75%
    18:00 +14°C° 1.6 mm 1 mps 601 mmHg 84%
    19:00 +12°C° 1.6 mm 1 mps 601 mmHg 93%
    20:00 +11°C° 0.4 mm 1 mps 601 mmHg 92%
    21:00 +10°C° 0.4 mm 1 mps 600 mmHg 90%
    22:00 +9°C° 0.4 mm 1 mps 600 mmHg 89%
    23:00 +9°C° 0 mm 1 mps 600 mmHg 88%

    Day after tomorrow, 21 July, Sunday

    Time Temperature Precipitation Wind Pressure Humidity
    00:00 +9°C° 0 mm 1 mps 600 mmHg 86%
    01:00 +9°C° 0 mm 1 mps 600 mmHg 84%
    02:00 +9°C° 0 mm 1 mps 600 mmHg 83%
    03:00 +9°C° 0 mm 1 mps 600 mmHg 82%
    04:00 +9°C° 0 mm 1 mps 600 mmHg 81%
    05:00 +11°C° 0 mm 1 mps 601 mmHg 78%
    06:00 +12°C° 0 mm 1 mps 602 mmHg 75%
    07:00 +14°C° 0 mm 1 mps 603 mmHg 72%
    08:00 +16°C° 0 mm 1 mps 604 mmHg 64%
    09:00 +19°C° 0 mm 1 mps 605 mmHg 56%
    10:00 +20°C° 0 mm 1 mps 606 mmHg 49%
    11:00 +21°C° 0.3 mm 1 mps 606 mmHg 48%
    12:00 +20°C° 0.3 mm 2 mps 606 mmHg 48%
    13:00 +20°C° 0.3 mm 2 mps 606 mmHg 48%
    14:00 +20°C° 0.5 mm 2 mps 606 mmHg 52%
    15:00 +20°C° 0.5 mm 2 mps 606 mmHg 55%
    16:00 +19°C° 0.5 mm 2 mps 606 mmHg 59%
    17:00 +18°C° 0.6 mm 2 mps 605 mmHg 69%
    18:00 +16°C° 0.6 mm 2 mps 605 mmHg 78%
    19:00 +15°C° 0.6 mm 1 mps 604 mmHg 88%
    20:00 +13°C° 0.1 mm 1 mps 604 mmHg 89%
    21:00 +12°C° 0.1 mm 1 mps 604 mmHg 90%
    22:00 +9°C° 0.1 mm 0 mps 603 mmHg 92%
    23:00 +9°C° 0 mm 0 mps 603 mmHg 91%

    22 July, Monday

    Time Temperature Precipitation Wind Pressure Humidity
    00:00 +8°C° 0 mm 0 mps 603 mmHg 90%
    01:00 +8°C° 0 mm 0 mps 602 mmHg 89%
    02:00 +8°C° 0 mm 0 mps 602 mmHg 89%
    03:00 +9°C° 0 mm 1 mps 602 mmHg 88%
    04:00 +8°C° 0 mm 1 mps 602 mmHg 88%
    05:00 +9°C° 0 mm 0 mps 603 mmHg 84%
    06:00 +11°C° 0 mm 0 mps 604 mmHg 81%
    07:00 +13°C° 0 mm 0 mps 605 mmHg 78%
    08:00 +16°C° 0 mm 1 mps 606 mmHg 69%
    09:00 +19°C° 0 mm 1 mps 607 mmHg 60%
    10:00 +21°C° 0 mm 1 mps 608 mmHg 51%
    11:00 +21°C° 0.3 mm 1 mps 608 mmHg 53%
    12:00 +20°C° 0.3 mm 2 mps 607 mmHg 55%
    13:00 +20°C° 0.3 mm 2 mps 607 mmHg 57%
    14:00 +20°C° 0.6 mm 2 mps 607 mmHg 60%
    15:00 +20°C° 0.6 mm 2 mps 607 mmHg 62%
    16:00 +19°C° 0.6 mm 2 mps 607 mmHg 65%
    17:00 +18°C° 0.1 mm 2 mps 606 mmHg 71%
    18:00 +18°C° 0.1 mm 1 mps 606 mmHg 77%
    19:00 +16°C° 0.1 mm 1 mps 605 mmHg 82%
    20:00 +14°C° 0 mm 1 mps 605 mmHg 86%
    21:00 +12°C° 0 mm 1 mps 604 mmHg 89%
    22:00 +9°C° 0 mm 0 mps 603 mmHg 93%
    23:00 +9°C° 0 mm 0 mps 603 mmHg 92%

    23 July, Tuesday

    Time Temperature Precipitation Wind Pressure Humidity
    00:00 +9°C° 0 mm 0 mps 603 mmHg 91%
    01:00 +10°C° 0 mm 1 mps 603 mmHg 90%
    02:00 +9°C° 0 mm 1 mps 602 mmHg 89%
    03:00 +9°C° 0 mm 1 mps 602 mmHg 88%
    04:00 +9°C° 0 mm 1 mps 602 mmHg 87%
    05:00 +10°C° 0 mm 0 mps 603 mmHg 81%
    06:00 +12°C° 0 mm 0 mps 604 mmHg 75%
    07:00 +14°C° 0 mm 0 mps 605 mmHg 69%
    08:00 +16°C° 0 mm 0 mps 605 mmHg 60%
    09:00 +20°C° 0 mm 1 mps 606 mmHg 50%
    10:00 +23°C° 0 mm 1 mps 607 mmHg 41%
    11:00 +23°C° 0 mm 1 mps 607 mmHg 37%
    12:00 +24°C° 0 mm 2 mps 607 mmHg 34%
    13:00 +25°C° 0 mm 2 mps 607 mmHg 31%
    14:00 +25°C° 0 mm 2 mps 607 mmHg 33%
    15:00 +25°C° 0 mm 2 mps 606 mmHg 35%
    16:00 +24°C° 0 mm 2 mps 606 mmHg 36%
    17:00 +21°C° 0 mm 2 mps 605 mmHg 48%
    18:00 +20°C° 0 mm 2 mps 605 mmHg 60%
    19:00 +18°C° 0 mm 2 mps 604 mmHg 72%
    20:00 +16°C° 0 mm 1 mps 603 mmHg 78%
    21:00 +14°C° 0 mm 1 mps 602 mmHg 85%
    22:00 +11°C° 0 mm 0 mps 601 mmHg 91%
    23:00 +12°C° 0 mm 1 mps 601 mmHg 90%

    24 July, Wednesday

    Time Temperature Precipitation Wind Pressure Humidity
    00:00 +11°C° 0 mm 1 mps 601 mmHg 89%
    01:00 +11°C° 0 mm 1 mps 601 mmHg 89%
    02:00 +11°C° 0 mm 1 mps 601 mmHg 88%
    03:00 +11°C° 0 mm 1 mps 600 mmHg 88%
    04:00 +10°C° 0 mm 1 mps 600 mmHg 88%
    05:00 +12°C° 0 mm 1 mps 601 mmHg 83%
    06:00 +13°C° 0 mm 0 mps 602 mmHg 77%
    07:00 +15°C° 0 mm 0 mps 603 mmHg 72%
    08:00 +17°C° 0 mm 0 mps 603 mmHg 63%
    09:00 +22°C° 0 mm 1 mps 604 mmHg 53%
    10:00 +24°C° 0 mm 1 mps 605 mmHg 44%
    11:00 +24°C° 0 mm 1 mps 605 mmHg 40%
    12:00 +25°C° 0 mm 2 mps 605 mmHg 36%
    13:00 +26°C° 0 mm 2 mps 605 mmHg 32%
    14:00 +25°C° 0 mm 2 mps 604 mmHg 34%
    15:00 +25°C° 0 mm 2 mps 604 mmHg 36%
    16:00 +25°C° 0 mm 2 mps 603 mmHg 37%
    17:00 +23°C° 0 mm 2 mps 603 mmHg 49%
    18:00 +21°C° 0 mm 1 mps 602 mmHg 60%
    19:00 +20°C° 0 mm 1 mps 601 mmHg 71%
    20:00 +18°C° 0 mm 1 mps 601 mmHg 76%
    21:00 +15°C° 0 mm 1 mps 600 mmHg 81%
    22:00 +13°C° 0 mm 1 mps 599 mmHg 86%
    23:00 +13°C° 0 mm 1 mps 599 mmHg 86%
    Show more